Home   Weather   Easter Island   Past weeks
Flag for Chile

Past Weather in Easter Island, Chile — Yesterday and Last 2 Weeks

Now
72 °F

Passing clouds.


Feels Like: 72 °F
Forecast: 78 / 69 °F
Wind: 6 mph from East

Location: Isla De Pascua

Current Time: Mar 20, 2019 at 12:19:58 am

Latest Report: Mar 19, 2019 at 11:00 pm


Visibility: N/A

Pressure: 30.12 "Hg

Humidity: 78%

Dew Point: 64 °F

Location of Easter IslandLocation

Past Weather in Easter Island — Graph

°F

Easter Island Temperature Yesterday

Maximum temperature yesterday: 81 °F (at 1:00 pm)
Minimum temperature yesterday: 70 °F (at 1:00 am)
Average temperature yesterday: 74 °F

High & Low Weather Summary for the Past Weeks

 TemperatureHumidityPressure
High82 °F (Mar 12, 1:00 pm)100% (Mar 7, 5:00 am)31.01 "Hg (Mar 7, 5:00 am)
Low66 °F (Mar 7, 6:00 am)51% (Mar 17, 4:00 pm)29.98 "Hg (Mar 8, 6:00 pm)
Average74 °F79%30.10 "Hg
* Reported Mar 4 11:00 pm — Mar 19 11:00 pm, Easter Island. Weather by CustomWeather, © 2019

Note: Actual official high and low records may vary slightly from our data, if they occured in-between our weather recording intervals... More about our weather records

Advertising

Easter Island Weather History for the Previous 24 Hours

Scroll right to see more
 ConditionsComfort  
Time TempWeatherWind HumidityBarometerVisibility
11:00 pm
Tue, Mar 19
72 °FPassing clouds.6 mph78%30.12 "HgN/A
10:00 pm70 °FPassing clouds.6 mph83%30.12 "HgN/A
9:00 pm73 °FPartly sunny.5 mph74%30.09 "HgN/A
8:00 pm77 °FPartly sunny.8 mph65%30.09 "HgN/A
7:00 pm77 °FPartly sunny.8 mph65%30.09 "HgN/A
6:00 pm79 °FBroken clouds.7 mph65%30.09 "HgN/A
5:00 pm79 °FPartly sunny.10 mph65%30.09 "HgN/A
4:00 pm79 °FBroken clouds.8 mph70%30.09 "HgN/A
3:00 pm75 °FSprinkles. Partly sunny.10 mph78%30.12 "Hg5 mi
2:00 pm79 °FPartly sunny.13 mph70%30.15 "HgN/A
1:00 pm81 °FPartly sunny.9 mph62%30.15 "HgN/A
12:00 pm73 °FBroken clouds.8 mph83%30.15 "HgN/A
11:00 am75 °FPartly sunny.5 mph74%30.15 "HgN/A
10:00 am75 °FBroken clouds.5 mph78%30.12 "HgN/A
8:00 am70 °FPartly cloudy.5 mph88%30.09 "HgN/A
7:00 am70 °FPartly cloudy.5 mph94%30.09 "HgN/A
6:00 am73 °FPartly cloudy.7 mph78%30.09 "HgN/A
5:00 am70 °FPartly cloudy.8 mph88%30.09 "HgN/A
4:00 am70 °FPartly cloudy.8 mph88%30.12 "HgN/A
3:00 am72 °FPartly cloudy.6 mph88%30.12 "HgN/A
2:00 am70 °FPassing clouds.3 mph88%30.15 "HgN/A
1:00 am70 °FPassing clouds.3 mph83%30.15 "HgN/A
12:00 am72 °FPassing clouds.5 mph83%30.15 "HgN/A
Weather by CustomWeather, © 2019

See weather overview